Vorticity
16 14 2 9 8 5 4 3 4 4 5 6 7 8 8 6 7 9 8 6 6 6
14 4 5 10 6 4 4 4 5 5 4 6 8 9 9 7 4 3 4 5 6 7
4 5 7 9 6 6 6 6 6 5 7 6 6 6 6 4 3 3 4 4 5 5
9 7 7 6 7 7 5 5 6 6 6 5 6 5 3 3 3 5 8 10 12 11
4 6 6 6 7 4 7 5 5 6 6 5 4 4 4 4 5 5 12 17 16 14
7 5 7 6 4 5 5 6 7 6 4 4 6 8 8 11 12 16 15 13 11 7
6 7 6 5 5 7 6 4 4 6 9 13 14 14 14 15 14 12 10 7 4 4
6 7 7 8 7 5 9 14 16 14 16 15 14 11 11 7 7 6 5 6 7 7
9 13 15 19 19 15 13 8 6 6 6 8 8 6 6 6 7 8 10 10 10 12
13 11 6 4 4 4 5 5 9 9 7 7 8 8 10 11 10 9 11 12 11 12
5 5 4 3 4 7 8 8 9 11 11 10 11 10 11 11 13 11 13 11 10 11
6 8 8 10 11 11 11 12 11 12 10 10 13 14 14 16 16 12 11 13 12 13
7 9 11 12 11 12 11 10 12 13 14 12 9 11 13 12 15 13 10 11 13 15
8 8 9 11 10 10 8 9 9 9 10 11 11 11 12 13 11 10 11 12 17 21
Height
5775 5772 5770 5768 5765 5761 5758 5755 5752 5748 5745 5742 5739 5736 5733 5729 5726 5722 5718 5714 5709 5705
5765 5764 5761 5758 5755 5751 5748 5745 5741 5738 5735 5731 5728 5725 5721 5717 5713 5709 5705 5701 5696 5692
5756 5754 5752 5749 5745 5742 5738 5734 5731 5727 5723 5719 5716 5712 5709 5704 5700 5696 5691 5687 5682 5677
5746 5743 5741 5737 5734 5731 5727 5723 5719 5715 5711 5707 5703 5699 5695 5691 5687 5682 5678 5672 5667 5661
5735 5732 5729 5726 5723 5719 5716 5711 5706 5702 5698 5694 5690 5685 5681 5676 5671 5666 5660 5655 5650 5645
5723 5720 5717 5714 5710 5706 5702 5697 5693 5689 5685 5680 5675 5670 5664 5659 5654 5648 5643 5638 5633 5628
5709 5707 5704 5700 5696 5692 5688 5683 5678 5674 5669 5664 5659 5653 5647 5642 5637 5632 5626 5621 5615 5609
5697 5694 5691 5687 5682 5677 5672 5667 5662 5657 5652 5647 5641 5636 5631 5626 5621 5615 5609 5604 5598 5592
5683 5680 5676 5671 5666 5661 5655 5650 5645 5640 5635 5630 5625 5619 5614 5609 5604 5599 5593 5587 5580 5574
5667 5663 5658 5652 5647 5643 5638 5633 5628 5623 5619 5614 5608 5603 5598 5593 5588 5581 5575 5568 5562 5557
5650 5646 5640 5635 5631 5628 5622 5618 5613 5607 5603 5598 5592 5587 5582 5577 5573 5565 5558 5552 5546 5540
5635 5630 5625 5620 5616 5612 5607 5601 5597 5592 5587 5583 5576 5571 5566 5560 5556 5550 5542 5536 5530 5523
5619 5615 5610 5605 5601 5596 5591 5586 5582 5576 5570 5566 5561 5553 5549 5544 5539 5533 5527 5520 5513 5507
5601 5596 5593 5588 5583 5579 5574 5569 5565 5559 5554 5550 5545 5539 5534 5528 5523 5516 5510 5503 5497 5490